Theta_e
308 307 306 306 306 308 309 311 310 309 311 310 309 308 307 307 307 306 307 307 310 309 308 306 305 303 303 303 302 303 303 304 305 306 307 307 309 311 313 315 318 336 336 336
307 308 308 309 310 311 312 310 309 310 311 310 307 306 306 307 307 307 308 309 308 307 305 304 303 301 300 300 299 299 299 300 300 302 303 305 306 308 311 313 316 319 331 338
308 309 311 311 311 311 310 309 309 309 308 306 305 306 306 307 307 312 309 307 306 304 303 301 300 298 298 297 296 296 296 296 297 298 299 301 304 305 308 310 313 316 319 327
309 310 311 310 309 309 308 308 309 309 307 306 306 306 306 307 309 310 307 305 303 301 300 299 297 296 295 294 293 293 293 293 294 295 295 296 298 303 305 306 308 310 313 318
309 309 308 308 308 308 308 308 307 307 304 304 305 304 306 306 311 308 305 303 301 299 298 297 295 293 293 292 291 291 291 291 291 291 292 293 294 298 301 302 304 306 308 313
307 305 305 306 308 307 307 306 306 305 304 305 306 305 307 310 309 306 304 301 299 297 295 294 293 292 291 290 289 289 289 290 289 290 290 291 292 294 297 299 300 302 305 308
306 307 306 307 307 307 306 305 306 308 308 308 308 308 315 308 305 304 303 301 298 296 294 293 292 291 290 289 289 289 289 289 289 288 288 289 291 292 294 296 298 300 302 305
307 307 308 308 307 306 306 306 308 310 308 306 306 308 311 305 303 303 301 299 297 295 293 292 291 290 289 289 289 289 289 288 288 288 288 288 290 291 292 294 296 298 300 303
307 308 306 306 306 305 306 304 305 306 304 306 305 308 307 304 302 302 300 298 295 293 292 291 290 289 289 289 289 289 288 288 287 287 288 289 290 292 293 294 295 297 299 301
307 306 307 306 306 305 304 304 304 305 307 307 305 308 313 305 302 301 300 298 295 293 291 290 289 288 288 289 289 289 288 287 287 288 288 290 292 294 295 297 298 299 300 302
304 304 304 305 305 305 305 304 305 304 304 305 304 301 305 301 301 300 298 297 294 292 290 288 288 288 288 288 288 289 288 287 287 287 288 290 291 293 294 296 297 299 302 304
304 304 304 305 304 304 303 304 305 303 305 305 306 304 301 299 300 298 296 295 293 291 288 288 288 287 287 288 288 288 287 287 287 287 288 289 289 290 292 292 293 295 297 304
304 303 303 304 304 306 308 309 309 309 306 307 306 303 301 300 298 296 294 293 292 290 288 288 287 287 286 287 287 288 286 286 286 287 287 288 288 288 289 290 290 290 292 293
304 304 303 303 304 304 303 304 307 310 311 306 304 300 302 300 297 295 293 292 290 289 288 287 286 286 286 286 286 287 285 285 286 286 287 287 287 288 287 288 288 288 289 289
301 303 300 302 304 303 303 302 303 304 306 306 302 305 300 299 296 294 292 291 289 288 286 286 286 284 284 284 284 285 284 284 285 285 285 286 287 287 287 287 286 287 287 287
302 301 298 296 303 304 304 303 304 302 304 303 302 303 298 296 294 292 291 289 288 287 285 285 284 283 283 283 282 283 283 283 283 284 283 284 285 286 286 286 286 285 285 285
301 299 297 301 305 309 305 302 303 304 306 307 308 302 297 295 293 291 290 288 286 285 284 283 282 281 281 282 281 281 282 282 282 282 282 281 283 283 284 285 286 284 284 284
301 300 302 303 304 309 301 304 305 306 306 301 299 298 296 293 290 289 288 286 285 284 282 281 281 281 280 281 281 281 281 281 281 280 281 281 280 281 282 283 284 285 283 282
303 301 301 304 307 306 305 303 305 304 305 302 300 297 293 291 289 288 286 284 283 282 281 280 280 280 280 280 280 280 281 281 281 280 279 280 278 279 279 280 281 281 282 281
304 303 302 307 310 312 306 304 303 304 304 303 299 295 293 291 297 289 286 283 282 281 280 280 280 280 280 280 280 281 280 281 281 281 280 279 278 277 277 278 279 280 278 279
308 306 306 305 307 307 304 303 304 305 302 300 298 295 293 293 291 286 285 283 281 281 280 280 280 280 280 280 281 281 281 281 282 281 281 279 278 277 276 276 276 277 278 277
307 305 305 306 309 309 301 301 304 300 299 299 297 295 291 287 285 284 283 282 283 282 280 280 280 280 279 280 280 280 281 281 282 281 281 280 279 278 277 276 276 275 275 276
307 305 304 304 301 298 299 299 300 298 296 294 292 289 287 284 284 283 283 283 282 282 281 280 280 281 280 279 280 280 281 282 281 282 281 281 280 278 277 276 276 276 275 275
304 303 301 299 297 298 298 298 297 296 294 291 289 287 286 284 284 283 283 283 282 282 282 281 280 280 279 279 279 279 280 281 281 280 281 280 280 279 278 277 276 276 275 275
301 300 300 298 296 296 296 296 294 293 292 290 288 287 285 285 284 283 282 282 282 282 282 281 280 279 278 279 279 278 279 279 280 280 279 280 280 279 279 278 278 277 277 276
299 297 297 296 295 295 293 293 293 292 291 290 288 287 286 285 284 284 283 283 282 282 281 280 279 278 277 277 278 278 278 278 278 279 279 278 279 279 278 278 278 278 277 277
Wind_Speed
5 3 7 11 12 13 13 11 10 8 8 13 10 15 7 8 6 7 7 6 17 12 15 23 27 31 32 33 33 32 32 32 32 30 30 32 32 35 37 35 27 31 34 35
6 10 15 14 14 13 8 8 10 11 8 8 11 15 9 6 7 7 8 14 12 12 14 20 25 29 31 30 32 30 30 30 29 28 28 27 29 28 31 33 33 31 30 37
11 10 10 13 12 15 7 6 8 14 6 5 8 11 9 9 8 17 17 14 15 15 14 15 22 26 27 28 28 29 31 30 29 28 31 29 29 31 29 28 29 29 27 27
11 13 15 10 9 9 5 6 11 10 7 5 5 7 12 15 5 15 13 13 13 14 14 15 20 22 24 25 27 29 29 30 30 27 27 28 27 26 27 31 32 34 32 28
8 5 5 6 5 5 4 6 5 5 7 6 19 1 10 13 9 10 12 14 14 14 15 14 19 23 25 28 30 28 29 27 28 30 26 27 29 28 29 34 35 35 35 31
13 9 8 8 3 2 6 4 7 6 1 6 18 7 3 3 4 9 12 13 14 15 17 20 27 28 29 30 29 30 28 28 29 30 28 28 29 29 29 29 34 34 33 32
8 14 13 11 5 3 2 3 3 3 1 8 8 8 3 10 12 11 10 12 13 12 13 14 17 23 24 26 28 27 27 29 29 28 30 29 28 28 30 30 29 33 34 32
3 7 5 6 7 8 6 5 3 4 3 9 11 4 6 12 12 11 12 12 13 13 12 12 17 19 22 25 27 28 28 29 30 30 30 29 28 27 27 29 30 34 35 35
4 5 4 7 4 4 1 2 1 2 9 9 4 6 6 9 11 9 10 10 10 10 11 12 18 21 24 27 30 30 30 30 30 30 29 29 28 26 26 29 30 33 35 36
1 3 3 2 1 3 6 3 3 3 4 7 4 2 3 4 7 9 10 9 9 9 10 11 17 23 27 29 31 28 30 30 30 30 28 25 27 26 25 27 29 31 35 35
3 4 3 5 1 4 3 2 4 6 4 3 3 5 4 3 2 5 7 9 9 11 10 11 19 24 26 28 30 29 30 31 34 33 30 25 24 20 16 14 15 18 24 40
2 2 2 5 9 13 6 6 6 4 6 5 6 5 4 5 2 6 6 8 10 9 7 10 17 21 26 30 31 30 33 34 34 32 30 27 25 24 20 19 17 18 20 12
2 1 2 7 5 4 3 3 6 3 2 9 4 4 6 5 5 5 4 7 8 9 9 11 17 23 26 29 30 28 31 32 34 31 30 30 30 30 28 27 27 26 26 26
7 2 6 6 3 5 6 10 6 3 3 3 6 5 8 6 3 1 5 6 6 8 12 12 14 21 26 27 28 27 31 33 33 33 31 32 35 32 32 32 31 30 34 36
4 3 1 4 8 11 12 12 12 7 9 4 5 4 8 7 7 4 5 5 8 11 12 12 13 19 24 25 27 28 32 35 35 33 35 36 34 35 33 34 33 35 41 38
1 2 3 5 11 14 17 14 13 10 9 2 6 3 9 11 8 6 5 6 8 10 11 11 15 19 21 24 26 28 31 32 33 34 36 36 37 37 37 38 33 40 42 40
5 4 2 5 7 6 8 13 12 8 6 4 6 5 14 11 8 6 6 6 7 9 9 11 14 17 20 23 26 27 28 28 31 31 34 37 35 36 35 34 36 41 45 39
5 5 2 3 5 4 5 3 4 4 5 10 12 13 12 13 9 8 6 6 7 8 8 11 13 17 20 22 25 24 26 30 31 33 33 35 34 35 35 36 37 34 35 38
6 4 2 2 3 3 1 2 3 3 5 9 13 15 14 14 13 7 7 8 7 6 8 10 11 13 17 22 23 24 26 28 31 34 34 34 36 34 35 35 35 34 33 36
7 5 4 2 3 3 3 4 5 1 4 12 17 16 15 13 4 4 9 10 10 9 9 11 13 14 21 24 25 27 26 28 29 27 31 30 31 32 31 31 31 31 34 33
6 5 12 6 4 4 5 6 7 1 4 13 16 16 16 6 1 13 12 11 12 11 11 14 16 19 21 23 26 28 27 30 26 27 28 34 34 34 33 33 35 32 32 35
8 6 4 4 4 7 3 4 4 3 4 7 13 13 10 14 13 12 9 8 12 10 12 15 17 19 23 23 26 28 28 26 24 29 27 34 35 36 41 39 37 38 34 34
4 5 4 4 2 1 2 3 1 4 5 3 8 12 18 15 12 11 9 10 12 10 11 15 16 17 21 24 26 27 25 21 26 27 29 26 31 34 36 36 33 33 34 33
1 1 3 3 4 5 3 3 5 7 10 10 13 15 15 16 12 9 8 11 11 10 11 11 14 18 21 22 23 23 24 21 23 27 26 28 23 26 30 32 30 28 31 30
4 5 6 2 4 4 2 6 9 11 14 14 13 14 14 15 11 9 7 13 15 13 13 14 16 18 18 19 21 23 21 21 22 20 24 23 25 26 22 22 27 28 29 30
2 5 4 5 10 5 6 9 13 14 13 13 15 13 15 16 12 16 13 16 15 12 17 17 17 17 15 14 18 19 23 20 21 19 20 24 23 24 25 26 27 23 22 24
Wind_Direction
209 171 230 227 222 232 253 278 296 300 349 338 315 292 292 304 328 311 295 36 87 75 58 49 45 33 24 19 16 13 7 2 358 352 346 333 326 320 314 309 308 269 249 233
259 249 239 238 258 262 280 305 303 297 325 297 299 294 317 294 298 334 338 77 68 59 49 42 36 31 25 19 10 6 3 357 348 343 334 325 317 310 308 306 306 302 272 253
236 249 269 254 267 243 249 252 284 291 303 308 326 301 325 312 348 78 62 59 55 48 43 35 31 27 20 14 6 1 353 347 343 337 327 325 318 310 310 309 308 299 305 290
265 245 252 281 299 296 282 337 326 308 344 286 99 296 302 298 356 70 62 54 45 36 35 31 23 20 16 5 357 353 347 337 330 331 328 321 313 305 303 302 301 300 293 304
242 294 307 293 298 272 296 36 358 338 327 354 292 320 268 291 63 61 51 45 36 33 27 20 19 11 3 359 355 346 337 332 326 321 317 312 303 300 300 295 299 298 295 292
268 286 280 260 201 77 352 20 10 330 323 270 272 258 323 31 54 50 41 38 33 25 14 12 7 4 358 351 346 341 335 327 323 317 312 304 298 298 297 294 294 296 295 291
267 250 249 245 216 149 59 33 333 327 291 233 290 317 115 91 65 51 47 33 28 29 20 6 2 356 351 346 343 339 334 326 322 315 308 301 295 292 289 288 289 289 292 289
267 323 347 359 201 181 172 137 183 249 294 299 302 238 105 78 59 43 54 34 29 24 14 9 360 353 347 344 342 340 336 330 325 319 310 302 296 288 283 279 276 278 278 284
208 256 82 50 47 80 71 186 210 329 286 282 236 107 73 54 42 33 30 39 30 21 10 1 358 353 349 347 344 342 340 336 330 322 315 307 299 291 281 275 271 270 273 278
43 340 305 351 292 214 151 152 33 343 292 260 254 247 140 24 10 11 13 33 38 27 8 356 353 353 354 348 345 348 346 340 335 334 330 317 307 300 290 280 271 269 271 273
91 127 272 20 232 255 257 206 205 178 192 237 286 270 155 120 17 9 11 23 29 21 2 352 353 356 349 346 348 354 349 348 350 345 343 344 345 342 337 327 320 322 288 275
55 121 268 242 290 281 288 247 203 176 233 246 262 254 123 155 125 52 14 11 24 28 349 351 357 355 352 355 351 357 355 353 352 353 355 360 7 5 5 8 1 1 9 30
104 168 9 316 328 1 38 359 353 334 137 220 225 263 178 183 87 58 31 25 20 18 5 6 5 4 354 356 351 359 356 354 358 359 4 12 18 18 17 22 23 25 34 41
85 201 169 235 219 304 303 301 289 289 232 217 220 166 181 174 181 59 44 36 33 27 20 11 12 2 355 357 351 357 359 2 2 6 12 17 22 22 25 31 31 36 43 43
112 202 170 278 281 281 275 264 266 248 257 202 209 144 168 137 128 108 73 43 40 32 23 13 12 1 355 356 355 3 3 6 5 10 14 17 21 29 29 35 38 41 48 46
126 247 84 293 275 255 253 255 259 247 256 217 155 132 129 124 122 112 71 54 45 36 24 15 12 1 355 358 358 4 6 7 9 14 16 17 21 26 28 34 37 47 47 44
160 144 94 265 268 286 263 231 232 239 213 175 222 151 146 140 131 103 89 67 54 40 25 19 12 4 354 358 3 6 7 10 18 19 20 19 21 25 27 30 34 40 47 39
150 131 150 271 324 245 239 352 311 104 92 104 110 138 143 131 115 105 80 86 65 45 30 25 8 4 0 4 11 10 16 21 22 24 24 23 23 26 28 32 33 36 44 48
137 136 212 209 225 255 213 216 177 166 213 154 142 135 130 129 117 94 103 91 82 59 44 30 12 8 14 19 20 21 23 26 28 27 26 25 25 28 27 31 34 34 41 44
149 143 156 282 262 282 199 187 127 312 271 163 144 147 154 160 158 144 127 111 94 80 62 46 40 33 35 36 38 37 28 30 27 28 30 32 33 34 33 33 33 36 40 42
165 172 216 226 254 272 136 159 133 159 250 145 151 154 160 167 37 132 124 122 113 95 76 68 55 49 44 42 42 41 36 33 35 40 38 40 39 37 39 41 39 37 38 38
168 164 186 194 231 244 39 98 198 205 45 138 148 152 133 119 117 120 129 130 137 130 93 77 64 58 50 43 42 39 36 36 42 43 44 42 45 41 43 42 40 39 39 38
174 182 176 171 192 146 4 94 113 101 121 92 115 132 132 131 135 142 144 135 134 140 124 86 71 65 56 46 42 38 33 42 43 46 44 43 44 47 46 46 42 41 40 40
67 132 113 108 186 172 92 91 80 108 111 109 121 131 135 136 147 148 140 139 133 120 124 128 88 71 57 50 44 41 39 44 45 44 43 43 42 45 49 52 53 49 45 41
198 137 129 84 131 110 209 120 121 109 114 119 123 131 136 136 140 132 126 132 141 143 130 110 95 77 62 54 47 39 43 43 42 44 43 40 41 42 43 51 58 63 58 49
180 177 161 214 185 161 161 143 134 128 132 133 131 132 136 137 135 140 155 162 166 160 118 99 87 76 62 57 49 44 39 47 44 34 38 37 35 40 45 47 49 52 58 55